Regional Weather Roundup
Issued by NWS Charleston, SC

Current Version | Previous Version | Graphics & Text | Print | Product List | Glossary Off
Versions: 1 2 3 4 5 6 7 8 9 10 11 12 13 14 15 16 17 18 19 20 21 22 23 24 25 26 27 28 29 30 31 32 33 34 35 36 37 38 39 40 41 42 43 44 45 46 47 48 49 50
000 ASUS42 KCHS 142213 RWRCHS REGIONAL WEATHER ROUNDUP NATIONAL WEATHER SERVICE CHARLESTON SC 500 PM EST SUN FEB 14 2016 NOTE: "FAIR" INDICATES FEW OR NO CLOUDS BELOW 12,000 FEET WITH NO SIGNIFICANT WEATHER AND/OR OBSTRUCTIONS TO VISIBILITY. NOT ALL STATIONS ARE QUALITY CONTROLLED BY THE NATIONAL WEATHER SERVICE. USE DATA WITH CAUTION...ESPECIALLY DEWPOINT OBSERVATIONS. SCZ027-030-031-034>040-042>050-142300- ...SOUTHEAST SOUTH CAROLINA... CITY SKY/WX TMP DP RH WIND PRES REMARKS N CHARLESTON CLOUDY 39 24 55 E15 30.40R WCI 31 WATERFRONT PRK N/A 38 32 79 NE15 30.22F WCI 29 MOUNT PLEASANT CLOUDY 37 30 75 E7 30.40F WCI 32 JOHNS ISLAND CLOUDY 39 30 70 NE15 30.39S WCI 31 PINOPOLIS N/A 41 16 36 E6 30.30F MONCKS CORNER CLOUDY 36 14 41 SE8 30.40R WCI 29 SUMMERVILLE NOT AVBL BEAUFORT MCAS CLOUDY 41 24 51 E9 30.37S BEAUFORT ARPT CLOUDY 41 30 65 E10 30.37S HILTON HEAD IS CLOUDY 41 34 75 NE14G24 30.37F WALTERBORO CLOUDY 45 18 33 E7 30.38R ALLENDALE CLOUDY 45 18 33 CALM 30.35S ...SOUTHERN MIDLANDS AND PEE DEE... CITY SKY/WX TMP DP RH WIND PRES REMARKS GEORGETOWN MOCLDY 34 21 60 E12G21 30.43F WCI 25 KINGSTREE FAIR 37 5 25 E6 30.40F WCI 33 ORANGEBURG CLOUDY 40 9 28 E7 30.37F WCI 35 BARNWELL MOCLDY 45 18 33 E9 30.35F AIKEN FAIR 41 12 30 SE10 30.37R MANNING MOCLDY 37 9 30 NE6 30.39F WCI 33 COLUMBIA PTSUNNY 39 7 26 E10 30.38S WCI 32 SUMTER CLOUDY 37 5 26 E6 30.37F WCI 32 FLORENCE CLOUDY 34 6 31 E10 30.42S WCI 26 MYRTLE BEACH SUNNY 37 14 38 E14 30.45F WCI 29 N MYRTLE BEACH CLOUDY 35 16 45 E8 30.43F WCI 29 $$ GAZ063-065-086>088-099>101-113>116-118-119-134>141-150-142300- ...SOUTHEAST GEORGIA... CITY SKY/WX TMP DP RH WIND PRES REMARKS SAVANNAH ARPT CLOUDY 42 29 59 E15 30.36S HUNTER AAF CLOUDY 42 33 71 E12 30.32F FORT STEWART CLOUDY 43 32 65 NE10 30.32S STATESBORO CLOUDY 49 24 37 SE6 30.33S SYLVANIA CLOUDY 46 30 52 SE8 30.34S CLAXTON CLOUDY 46 35 63 E6 30.34R ...CSRA...CENTRAL AND FAR SOUTHEAST GEORGIA... CITY SKY/WX TMP DP RH WIND PRES REMARKS THOMSON PTSUNNY 46 22 37 E5 30.35R AUGUSTA-BUSH SUNNY 44 15 31 E10 30.33F AUGUSTA-DANIEL SUNNY 44 14 29 E9 30.33S SWAINSBORO FAIR 50 28 43 SE9 30.31S VIDALIA SUNNY 50 37 62 SE8 30.30S EASTMAN FAIR 53 31 42 SE8 30.29S HAZLEHURST FAIR 53 39 60 SE8 30.27S ALMA SUNNY 49 39 68 E12G20 30.28F WAYCROSS MOSUNNY 52 43 72 E14 30.30R JESUP CLOUDY 46 39 76 SE9 30.32F BAXLEY PTSUNNY 50 37 62 SE8G16 30.29S BRUNSWICK CLOUDY 45 41 87 NE9G17 30.33S SAINT SIMONS CLOUDY 47 42 83 NE15 30.31S $$ SCZ027-028-034-036>038-045-046-048>050-GAZ119-141-142300- ...LAKE AND SUPPLEMENTAL COASTAL OBSERVATIONS... STATION/POSITION TIME TEMP WIND PRES WAVE SWELL AIR SEA DIR/SP/G HT/PER HT/PER/DIR (UTC) (F) (DEG/KT/KT) (MB) (FT/S) (FT/S/D) WINYAH BAY NOT AVBL LAKE MURRAY 2100 36 80/ 6/ 12 1027.8F ACE BASIN NERRS NOT AVBL FORT PULASKI 2100 40 49 40/ 20/ 26 1028.1F SAPELO ISLAND 2100 45 40/ 13 1027.0S $$ ANZ835-935-AMZ111-154-330-350-352-354-370-450-454-472-142300- ...C-MAN AND BUOY OBSERVATIONS... STATION/POSITION TIME TEMP WIND PRES WAVE SWELL AIR SEA DIR/SP/G HT/PER HT/PER/DIR (UTC) (F) (DEG/KT/KT) (MB) (FT/S) (FT/S/D) BUOY 41004 2150 49 68 70/ 19/ 23 1027.4S 6/ 6 2/10 BUOY 41008 2150 49 53 50/ 21/ 27 1025.6F 7/ 7 FOLLY BEACH CMAN 2100 39 40/ 20/ 23 1029.3S CAPERS NEARSHORE 2108 39 60/ 19/ 27 1029.0R FRIPP NEARSHORE 2100 41 70/ 23/ 25 1026.8F STATION/POSITION TIME TEMP WIND PRES WAVE SWELL AIR SEA DIR/SP/G HT/PER HT/PER/DIR (UTC) (F) (DEG/KT/KT) (MB) (FT/S) (FT/S/D) 5E ST. MARYS GA 2121 55 N/A 5/ 5 FRYING PAN BUOY 2100 38 61 40/ 14/ 17 1030.8F BUOY 41025 2150 31 71 10/ 14/ 21 1033.2R 6/ 9 5/ 50/ 9 CAPE LOOKOUT NC 2100 28 50/ 7/ 10 1032.3R BUOY 41002 2150 50 67 50/ 14/ 19 N/A 7/11 5/ 10/11 BUOY 41010 2120 63 72 1024.7S ST AUGUSTINE FL 2200 53 58 360/ 19/ 21 1025.1F $$

USA.gov is the U.S. government's official web portal to all federal, state and local government web resources and services.